#timestamp,LO_Frequency,Hit,StdDev 
1552932015.5,286046998.1,N
1552932035.4,286047000.2,N
1552932055.2,286047002.3,N
1552932075.0,286047002.8,N
1552932075.9,286047002.8,N
1552932095.8,286047002.4,N
1552932115.6,286047002.2,N
1552932135.4,286046999.7,N
1552932155.3,286047002.0,N
1552932175.1,286047000.6,N
1552932195.9,286047000.0,N
1552932215.7,286047001.0,N
1552932235.5,286047000.7,N
1552932255.4,286047000.8,N
1552932275.2,286047000.7,N
1552932295.0,286047000.0,N
1552932295.9,286047000.0,N
1552932315.8,286046999.9,N
1552932335.6,286047000.0,N
1552932355.5,286047000.9,N
1552932375.3,286047001.0,N
1552932395.1,286047000.0,N
1552932415.9,286047000.1,N
1552932435.7,286047001.0,N
1552932455.5,286046998.4,N
1552932475.4,286046998.8,N
1552932495.2,286046999.9,N
1552932515.1,286046999.7,N
1552932516.0,286046999.7,N
1552932535.8,286047002.0,N
1552932555.6,286047003.8,Y
1552932575.5,286047001.6,P
1552932595.3,286047001.9,P
1552932615.1,286047004.3,P
1552932635.9,286047003.9,N
1552932655.7,286047003.1,N
1552932675.6,286047003.9,N
1552932695.4,286047002.0,N
1552932715.2,286046999.8,N
1552932735.1,286046999.7,N
1552932736.0,286046999.7,N
1552932755.8,286047002.7,N
1552932775.6,286047002.0,N
1552932795.5,286047004.2,N
1552932815.3,286047004.0,N
1552932835.2,286047001.9,N
1552932855.9,286047004.3,N
1552932875.7,286047003.9,N
1552932895.6,286047001.9,N
1552932915.4,286047001.3,N
1552932935.2,286047001.6,N
1552932955.1,286047004.4,N
1552932956.0,286047004.4,N
1552932975.8,286047002.0,N
1552932995.7,286047002.8,N
1552933015.5,286047001.8,N
1552933035.3,286046999.8,N
1552933055.2,286047002.2,N
1552933075.0,286047003.7,N
1552933075.9,286047003.7,N
1552933095.7,286047003.1,N
1552933115.6,286047004.1,N
1552933135.4,286047001.4,N
1552933155.3,286047002.5,N
1552933175.1,286047002.0,N
1552933176.0,286047002.0,N
1552933195.8,286046999.8,N
1552933215.7,286047002.6,N
1552933235.5,286047001.6,N
1552933255.3,286047002.0,N
1552933275.2,286047002.1,N
1552933295.0,286047000.6,N
1552933295.9,286047000.6,N
1552933315.8,286047000.1,N
1552933335.6,286047000.2,N
1552933355.4,286046999.7,N
1552933375.3,286047002.1,N
1552933395.1,286046999.9,N
1552933415.8,286047000.0,N
1552933435.7,286047000.6,N
1552933455.5,286047000.1,N
1552933475.4,286047000.5,N
1552933495.2,286046998.3,N
1552933515.0,286046998.1,N
1552933515.9,286046998.1,N
1552933535.8,286047000.1,N
1552933555.6,286047002.2,N
1552933575.4,286047003.9,N
1552933595.3,286047004.4,N
1552933615.1,286047004.0,N
1552933635.9,286047001.5,N
1552933655.7,286047004.3,N
1552933675.5,286047000.0,N
1552933695.4,286047002.8,N
1552933715.2,286047002.2,N
1552933735.0,286046999.7,N
1552933735.9,286046999.7,N
1552933755.8,286047004.2,N
1552933775.6,286047001.3,N
1552933795.5,286047004.4,N
1552933815.3,286047004.1,N
1552933835.1,286047003.7,N
1552933855.9,286047003.7,N
1552933875.7,286047001.8,N
1552933895.5,286047001.7,N
1552933915.4,286047001.9,N
1552933935.2,286047002.6,N
1552933955.1,286047002.2,N
1552933956.0,286047002.2,N
1552933975.8,286047001.7,N
1552933995.6,286047001.4,N
1552934015.5,286047002.8,N
1552934035.3,286047002.1,N
1552934055.1,286047002.2,N
1552934075.9,286047004.3,N
1552934095.7,286047004.1,N
1552934115.6,286047002.9,N
1552934135.4,286047003.9,N
1552934155.2,286047003.8,N
1552934175.1,286047001.7,N
1552934176.0,286047001.7,N
1552934195.8,286047004.0,N
1552934215.6,286047005.6,Y
1552934235.5,286047002.1,P
1552934255.3,286047002.3,P
1552934275.2,286047002.0,P
1552934295.9,286047002.0,Y
1552934315.7,286046999.0,P
1552934335.6,286046998.2,N
1552934355.4,286046999.3,N
1552934375.2,286046996.5,N
1552934395.1,286046996.8,N
1552934396.0,286046996.8,N
1552934415.8,286046996.9,N
1552934435.7,286047011.9,Y
1552934455.5,286047002.3,P
1552934475.3,286047000.8,N
1552934495.2,286047002.6,N
1552934515.0,286047000.7,N
1552934515.9,286047000.7,N
1552934535.8,286047000.3,N
1552934555.6,286046998.6,N
1552934575.4,286046998.3,N
1552934595.3,286046998.8,N
1552934615.1,286046996.6,N
1552934616.0,286046996.6,N
1552934635.8,286046997.6,N
1552934655.7,286046999.4,N
1552934675.5,286047000.8,N
1552934695.3,286046999.0,N
1552934715.2,286047001.1,N
1552934735.0,286046998.1,N
1552934735.9,286046998.1,N
1552934755.8,286046998.2,N
1552934775.6,286046998.9,N
1552934795.4,286046999.0,N
1552934815.3,286046998.9,N
1552934835.1,286046998.2,N
1552934855.8,286047000.4,N
1552934875.7,286047000.3,N
1552934895.5,286047000.3,N
1552934915.4,286047002.3,N
1552934935.2,286047000.1,N
1552934955.0,286047000.6,N
1552934955.9,286047000.6,N
1552934975.8,286047001.2,N
1552934995.6,286047000.9,N
1552935015.4,286046998.3,N
1552935035.3,286046998.9,N
1552935055.1,286046998.9,N
1552935075.9,286046998.4,N
1552935095.7,286046999.6,N
1552935115.5,286046999.2,N
1552935135.4,286046997.1,N
1552935155.2,286046996.7,N
1552935175.0,286046997.8,N
1552935175.9,286046997.8,N
1552935195.8,286046997.0,N
1552935215.6,286046999.6,N
1552935235.5,286046996.7,N
1552935255.3,286046997.4,N
1552935275.1,286046997.0,N
1552935295.9,286046997.7,N
1552935315.7,286046997.0,N
1552935335.5,286046998.6,N
1552935355.4,286047001.1,N
1552935375.2,286046998.9,N
1552935395.1,286046999.6,N
1552935396.0,286046999.6,N
1552935415.8,286046999.2,N
1552935435.6,286046998.1,N
1552935455.5,286047000.5,N
1552935475.3,286047001.0,N
1552935495.1,286046998.3,N
1552935515.9,286046998.3,N
1552935535.7,286047000.8,N
1552935555.6,286046998.5,N
1552935575.4,286046998.5,N
1552935595.2,286046998.7,N
